| time (UTC) | temp F | wind direction | speed MPH | gust MPH | rain 1hr in | rain 24hr in | rain mn in | humidity % | barometer mb |
| 20260507111544 | 71 | 221 | 0.0 | 9.0 | 0.00 | 0.00 | 0.00 | 50 | 1010.9 |
| 20260507110042 | 70 | 250 | 2.0 | 7.0 | 0.00 | 0.00 | 0.00 | 50 | 1010.9 |
| 20260507104554 | 69 | 259 | 1.0 | 8.0 | 0.00 | 0.00 | 0.00 | 52 | 1010.9 |
| 20260507103046 | 67 | 272 | 3.0 | 9.0 | 0.00 | 0.00 | 0.00 | 58 | 1011.0 |
| 20260507101556 | 65 | 241 | 3.0 | 6.0 | 0.00 | 0.00 | 0.00 | 61 | 1011.0 |
| 20260507100054 | 66 | 226 | 3.0 | 5.0 | 0.00 | 0.00 | 0.00 | 61 | 1011.0 |
| 20260507094543 | 64 | 116 | 1.0 | 8.0 | 0.00 | 0.00 | 0.00 | 64 | 1011.0 |
| 20260507093042 | 65 | 225 | 2.0 | 7.0 | 0.00 | 0.00 | 0.00 | 65 | 1011.1 |
| 20260507091550 | 63 | 239 | 3.0 | 8.0 | 0.00 | 0.00 | 0.00 | 66 | 1011.1 |
| 20260507090048 | 62 | 250 | 2.0 | 5.0 | 0.00 | 0.00 | 0.00 | 69 | 1011.0 |
| 20260507084549 | 60 | 193 | 3.0 | 6.0 | 0.00 | 0.00 | 0.00 | 72 | 1010.9 |
| 20260507083058 | 59 | 257 | 2.0 | 7.0 | 0.00 | 0.00 | 0.00 | 74 | 1010.8 |
| 20260507081547 | 58 | 239 | 3.0 | 8.0 | 0.00 | 0.00 | 0.00 | 77 | 1010.7 |
| 20260507080049 | 58 | 208 | 3.0 | 6.0 | 0.00 | 0.00 | 0.00 | 79 | 1010.8 |
| 20260507074540 | 56 | 246 | 2.0 | 8.0 | 0.00 | 0.00 | 0.00 | 83 | 1010.7 |
| 20260507073050 | 54 | 231 | 4.0 | 7.0 | 0.00 | 0.00 | 0.00 | 85 | 1010.6 |
| 20260507071545 | 53 | 230 | 5.0 | 8.0 | 0.00 | 0.00 | 0.00 | 86 | 1010.5 |
| 20260507070047 | 53 | 218 | 4.0 | 5.0 | 0.00 | 0.00 | 0.00 | 84 | 1010.4 |
| 20260507064545 | 53 | 0 | 1.0 | 4.0 | 0.00 | 0.00 | 0.00 | 87 | 1010.2 |
| 20260507063049 | 52 | 251 | 3.0 | 5.0 | 0.00 | 0.00 | 0.00 | 87 | 1010.1 |
| 20260507061544 | 52 | 231 | 1.0 | 6.0 | 0.00 | 0.00 | 0.00 | 87 | 1010.2 |
| 20260507060057 | 51 | 198 | 2.0 | 3.0 | 0.00 | 0.00 | 0.00 | 87 | 1009.9 |
| 20260507054548 | 51 | 0 | 1.0 | 4.0 | 0.00 | 0.00 | 0.00 | 88 | 1009.7 |
| 20260507053049 | 51 | 226 | 1.0 | 4.0 | 0.00 | 0.00 | 0.00 | 88 | 1009.5 |
| 20260507051546 | 51 | 209 | 1.0 | 2.0 | 0.00 | 0.00 | 0.00 | 88 | 1009.6 |
| 20260507050045 | 51 | 222 | 2.0 | 4.0 | 0.00 | 0.00 | 0.00 | 87 | 1009.5 |
| 20260507044553 | 52 | 227 | 1.0 | 3.0 | 0.00 | 0.00 | 0.00 | 86 | 1009.6 |
| 20260507043047 | 53 | 0 | 0.0 | 2.0 | 0.00 | 0.00 | 0.00 | 86 | 1009.4 |
| 20260507041548 | 53 | 226 | 0.0 | 3.0 | 0.00 | 0.00 | 0.00 | 84 | 1009.6 |
| 20260507040045 | 54 | 238 | 1.0 | 8.0 | 0.00 | 0.00 | 0.00 | 83 | 1009.5 |
| 20260507034545 | 54 | 236 | 1.0 | 5.0 | 0.00 | 0.00 | 0.00 | 82 | 1009.5 |
| 20260507033044 | 54 | 255 | 1.0 | 6.0 | 0.00 | 0.00 | 0.00 | 83 | 1009.5 |
| 20260507031541 | 53 | 256 | 2.0 | 4.0 | 0.00 | 0.00 | 0.00 | 82 | 1009.9 |
| 20260507030046 | 54 | 132 | 0.0 | 1.0 | 0.00 | 0.00 | 0.00 | 81 | 1009.7 |
| 20260507024554 | 54 | 157 | 0.0 | 1.0 | 0.00 | 0.00 | 0.00 | 80 | 1009.6 |
| 20260507023045 | 54 | 0 | 0.0 | 2.0 | 0.00 | 0.00 | 0.00 | 79 | 1009.7 |
| 20260507021545 | 54 | 98 | 0.0 | 1.0 | 0.00 | 0.00 | 0.00 | 78 | 1009.6 |
| 20260507020105 | 54 | 211 | 1.0 | 3.0 | 0.00 | 0.00 | 0.00 | 77 | 1009.7 |
| 20260507014554 | 55 | 163 | 0.0 | 1.0 | 0.00 | 0.00 | 0.00 | 76 | 1009.7 |
| 20260507013048 | 55 | 0 | 0.0 | 2.0 | 0.00 | 0.00 | 0.00 | 75 | 1009.8 |
| 20260507011551 | 56 | 0 | 0.0 | 1.0 | 0.00 | 0.00 | 0.00 | 74 | 1009.9 |
| 20260507010044 | 56 | 250 | 0.0 | 1.0 | 0.00 | 0.00 | 0.00 | 74 | 1009.9 |
| 20260507004550 | 57 | 269 | 1.0 | 3.0 | 0.00 | 0.00 | 0.00 | 73 | 1010.0 |
| 20260507003047 | 57 | 181 | 0.0 | 3.0 | 0.00 | 0.00 | 0.00 | 72 | 1010.1 |
| 20260507001547 | 57 | 236 | 0.0 | 3.0 | 0.00 | 0.00 | 0.00 | 71 | 1010.2 |
| 20260507000045 | 58 | 245 | 1.0 | 3.0 | 0.00 | 0.00 | 0.00 | 71 | 1010.4 |
| 20260506234550 | 58 | 171 | 0.0 | 6.0 | 0.00 | 0.00 | 0.00 | 70 | 1010.3 |
| 20260506233043 | 58 | 200 | 1.0 | 5.0 | 0.00 | 0.00 | 0.00 | 69 | 1010.3 |
| 20260506231551 | 59 | 212 | 1.0 | 9.0 | 0.00 | 0.00 | 0.00 | 68 | 1010.2 |
| 20260506230056 | 59 | 221 | 1.0 | 5.0 | 0.00 | 0.00 | 0.00 | 67 | 1010.1 |
| 20260506224546 | 60 | 200 | 2.0 | 8.0 | 0.00 | 0.00 | 0.00 | 66 | 1010.1 |
| 20260506223051 | 60 | 262 | 2.0 | 11.0 | 0.00 | 0.00 | 0.00 | 65 | 1010.2 |
| 20260506221544 | 61 | 166 | 2.0 | 7.0 | 0.00 | 0.00 | 0.00 | 64 | 1010.1 |
| 20260506220055 | 61 | 127 | 1.0 | 6.0 | 0.00 | 0.00 | 0.00 | 63 | 1010.0 |
| 20260506214549 | 62 | 211 | 2.0 | 7.0 | 0.00 | 0.00 | 0.00 | 61 | 1009.9 |
| 20260506213103 | 62 | 290 | 1.0 | 7.0 | 0.00 | 0.00 | 0.00 | 59 | 1009.7 |
| 20260506211603 | 63 | 223 | 1.0 | 5.0 | 0.00 | 0.00 | 0.00 | 56 | 1009.7 |
| 20260506210045 | 64 | 233 | 1.0 | 7.0 | 0.00 | 0.00 | 0.00 | 52 | 1009.7 |
| 20260506204550 | 64 | 229 | 1.0 | 3.0 | 0.00 | 0.00 | 0.00 | 50 | 1009.4 |
| 20260506203047 | 65 | 255 | 0.0 | 2.0 | 0.00 | 0.00 | 0.00 | 49 | 1009.2 |
| 20260506201559 | 66 | 349 | 1.0 | 3.0 | 0.00 | 0.00 | 0.00 | 47 | 1009.2 |
| 20260506200052 | 67 | 240 | 0.0 | 1.0 | 0.00 | 0.00 | 0.00 | 46 | 1009.0 |
| 20260506194557 | 67 | 0 | 0.0 | 1.0 | 0.00 | 0.00 | 0.00 | 44 | 1009.1 |
| 20260506193054 | 68 | 0 | 0.0 | 1.0 | 0.00 | 0.00 | 0.00 | 42 | 1009.1 |
| 20260506191553 | 70 | 0 | 0.0 | 1.0 | 0.00 | 0.00 | 0.00 | 40 | 1009.1 |
| 20260506190044 | 71 | 0 | 0.0 | 2.0 | 0.00 | 0.00 | 0.00 | 39 | 1009.1 |
| 20260506184542 | 73 | 283 | 0.0 | 3.0 | 0.00 | 0.00 | 0.00 | 37 | 1009.1 |
| 20260506183058 | 73 | 230 | 1.0 | 4.0 | 0.00 | 0.00 | 0.00 | 36 | 1009.2 |
| 20260506181544 | 72 | 241 | 3.0 | 6.0 | 0.00 | 0.00 | 0.00 | 37 | 1009.4 |
| 20260506180049 | 73 | 240 | 3.0 | 6.0 | 0.00 | 0.00 | 0.00 | 36 | 1009.4 |
| 20260506174545 | 74 | 218 | 2.0 | 5.0 | 0.00 | 0.00 | 0.00 | 36 | 1009.6 |
| 20260506173050 | 73 | 217 | 4.0 | 8.0 | 0.00 | 0.00 | 0.00 | 35 | 1009.6 |
| 20260506171542 | 74 | 340 | 1.0 | 8.0 | 0.00 | 0.00 | 0.00 | 37 | 1009.7 |
| 20260506170108 | 74 | 225 | 3.0 | 6.0 | 0.00 | 0.00 | 0.00 | 36 | 1009.7 |
| 20260506164542 | 75 | 262 | 1.0 | 5.0 | 0.00 | 0.00 | 0.00 | 36 | 1009.7 |
| 20260506163054 | 75 | 247 | 1.0 | 9.0 | 0.00 | 0.00 | 0.00 | 36 | 1009.9 |
| 20260506161544 | 76 | 198 | 1.0 | 4.0 | 0.00 | 0.00 | 0.00 | 36 | 1009.8 |
| 20260506160043 | 76 | 203 | 0.0 | 7.0 | 0.00 | 0.00 | 0.00 | 37 | 1009.9 |
| 20260506154544 | 73 | 262 | 1.0 | 8.0 | 0.00 | 0.00 | 0.00 | 37 | 1009.9 |
| 20260506153046 | 75 | 223 | 1.0 | 8.0 | 0.00 | 0.00 | 0.00 | 39 | 1010.1 |
| 20260506151546 | 76 | 94 | 1.0 | 7.0 | 0.00 | 0.00 | 0.00 | 37 | 1010.4 |
| 20260506150044 | 75 | 180 | 1.0 | 5.0 | 0.00 | 0.00 | 0.00 | 41 | 1010.6 |
| 20260506144558 | 74 | 217 | 3.0 | 8.0 | 0.00 | 0.00 | 0.00 | 39 | 1010.9 |
| 20260506143041 | 74 | 255 | 2.0 | 6.0 | 0.00 | 0.00 | 0.00 | 38 | 1011.0 |
| 20260506141540 | 74 | 262 | 2.0 | 6.0 | 0.00 | 0.00 | 0.00 | 39 | 1011.3 |
| 20260506140048 | 74 | 0 | 1.0 | 5.0 | 0.00 | 0.00 | 0.00 | 41 | 1011.5 |
| 20260506134545 | 75 | 217 | 1.0 | 7.0 | 0.00 | 0.00 | 0.00 | 42 | 1011.8 |
| 20260506133045 | 73 | 225 | 1.0 | 7.0 | 0.00 | 0.00 | 0.00 | 40 | 1011.8 |
| 20260506131544 | 72 | 216 | 2.0 | 7.0 | 0.00 | 0.00 | 0.00 | 42 | 1012.0 |
| 20260506130046 | 73 | 236 | 1.0 | 2.0 | 0.00 | 0.00 | 0.00 | 41 | 1012.1 |
| 20260506124543 | 71 | 104 | 1.0 | 6.0 | 0.00 | 0.00 | 0.00 | 42 | 1012.3 |
| 20260506123048 | 75 | 88 | 1.0 | 6.0 | 0.00 | 0.00 | 0.00 | 40 | 1012.7 |
| 20260506121549 | 74 | 109 | 0.0 | 6.0 | 0.00 | 0.00 | 0.00 | 44 | 1012.8 |
| 20260506120045 | 71 | 101 | 1.0 | 6.0 | 0.00 | 0.00 | 0.00 | 44 | 1013.0 |
| 20260506114544 | 72 | 199 | 2.0 | 7.0 | 0.00 | 0.00 | 0.00 | 44 | 1013.1 |
| 20260506113042 | 71 | 90 | 2.0 | 4.0 | 0.00 | 0.00 | 0.00 | 44 | 1013.4 |